Location: Newark
(40.9833°N, 0.0333°W)
Time: 00:57:22
(UTC+00:00)

ISS - Visible Passes

Search period start: 21 September 2020 00:00
Search period end: 01 October 2020 00:00
Orbit: 419 x 420 km, 51.6° (Epoch: 21 September)

Date Brightness Start Highest point End Pass type
(mag) Time Alt. Az. Time Alt. Az. Time Alt. Az.
21 Sep -2.4 18:51:29 10° W 18:54:39 38° NNW 18:57:51 10° NE visible
21 Sep -0.7 20:30:09 10° NW 20:31:26 14° NNW 20:31:26 14° NNW visible
22 Sep -1.3 19:42:13 10° WNW 19:44:32 17° NNW 19:45:57 14° NNE visible
23 Sep -1.5 18:54:17 10° WNW 18:56:55 21° NNW 18:59:34 10° NNE visible
23 Sep -0.5 20:32:55 10° NNW 20:33:21 11° NNW 20:33:21 11° NNW visible
24 Sep -1.1 19:45:11 10° NW 19:47:00 14° N 19:47:44 13° N visible
25 Sep -1.1 18:57:17 10° NW 18:59:18 15° N 19:01:20 10° NNE visible
25 Sep -0.3 20:35:00 10° NNW 20:35:02 10° NNW 20:35:02 10° NNW visible
26 Sep -1.2 19:47:33 10° NNW 19:49:21 14° N 19:49:21 14° N visible
27 Sep -1.2 18:59:57 10° NNW 19:01:44 13° N 19:03:31 10° NNE visible
28 Sep -1.2 18:12:10 10° NW 18:13:59 14° N 18:15:49 10° NNE visible
28 Sep -1.3 19:49:19 10° NNW 19:50:54 17° N 19:50:54 17° N visible
29 Sep -1.5 19:01:55 10° NNW 19:04:06 16° NNE 19:05:12 14° NE visible
30 Sep -1.3 18:14:27 10° NNW 18:16:22 14° N 18:18:17 10° NE visible
30 Sep -1.6 19:50:52 10° NW 19:52:29 22° NNW 19:52:29 22° NNW visible
